TimeCDT,TemperatureF,Dew PointF,Humidity,Sea Level PressureIn,VisibilityMPH,Wind Direction,Wind SpeedMPH,Gust SpeedMPH,PrecipitationIn,Events,Conditions,WindDirDegrees,DateUTC
12:15 AM,64.4,55.4,73,29.96,10.0,SSE,9.2,-,N/A,,Clear,160,2013-05-01 05:15:00
12:35 AM,64.4,55.4,73,29.97,10.0,South,8.1,-,N/A,,Clear,170,2013-05-01 05:35:00
12:55 AM,62.6,55.4,77,29.97,10.0,SSE,5.8,-,N/A,,Clear,160,2013-05-01 05:55:00
1:15 AM,60.8,53.6,77,29.98,10.0,SSE,5.8,-,N/A,,Clear,160,2013-05-01 06:15:00
1:35 AM,60.8,55.4,82,29.98,10.0,SSE,6.9,-,N/A,,Clear,160,2013-05-01 06:35:00
1:55 AM,60.8,53.6,77,29.98,10.0,SSE,6.9,-,N/A,,Clear,160,2013-05-01 06:55:00
2:15 AM,60.8,53.6,77,29.98,10.0,SE,6.9,-,N/A,,Clear,140,2013-05-01 07:15:00
2:35 AM,60.8,53.6,77,29.98,10.0,SSE,5.8,-,N/A,,Clear,150,2013-05-01 07:35:00
2:55 AM,60.8,53.6,77,29.98,10.0,SSE,5.8,-,N/A,,Clear,150,2013-05-01 07:55:00
3:15 AM,59.0,53.6,82,29.99,10.0,SSE,4.6,-,N/A,,Clear,160,2013-05-01 08:15:00
3:35 AM,57.2,53.6,88,30.00,10.0,South,4.6,-,N/A,,Clear,170,2013-05-01 08:35:00
3:55 AM,57.2,53.6,88,30.00,10.0,SSE,4.6,-,N/A,,Clear,150,2013-05-01 08:55:00
4:15 AM,57.2,53.6,88,30.00,10.0,SSE,3.5,-,N/A,,Clear,150,2013-05-01 09:15:00
4:35 AM,57.2,53.6,88,30.01,10.0,Calm,Calm,-,N/A,,Clear,0,2013-05-01 09:35:00
4:55 AM,55.4,53.6,94,30.02,10.0,Calm,Calm,-,N/A,,Clear,0,2013-05-01 09:55:00
5:15 AM,55.4,53.6,94,30.02,10.0,Calm,Calm,-,N/A,,Clear,0,2013-05-01 10:15:00
5:35 AM,55.4,53.6,94,30.03,10.0,SE,3.5,-,N/A,,Clear,130,2013-05-01 10:35:00
5:55 AM,55.4,53.6,94,30.03,10.0,ESE,3.5,-,N/A,,Clear,120,2013-05-01 10:55:00
6:15 AM,55.4,53.6,94,30.04,10.0,SE,3.5,-,N/A,,Clear,130,2013-05-01 11:15:00
6:35 AM,55.4,53.6,94,30.05,10.0,SE,3.5,-,N/A,,Clear,130,2013-05-01 11:35:00
6:55 AM,57.2,53.6,88,30.05,10.0,SSE,4.6,-,N/A,,Clear,150,2013-05-01 11:55:00
7:15 AM,60.8,53.6,77,30.06,10.0,SSE,5.8,-,N/A,,Clear,150,2013-05-01 12:15:00
7:35 AM,62.6,53.6,72,30.06,10.0,SSE,5.8,-,N/A,,Clear,150,2013-05-01 12:35:00
7:55 AM,62.6,53.6,72,30.06,10.0,SSE,8.1,-,N/A,,Clear,150,2013-05-01 12:55:00
8:15 AM,64.4,53.6,68,30.07,10.0,SSE,8.1,-,N/A,,Clear,160,2013-05-01 13:15:00
8:35 AM,66.2,55.4,68,30.07,10.0,South,8.1,-,N/A,,Clear,170,2013-05-01 13:35:00
8:55 AM,68.0,55.4,64,30.07,10.0,South,6.9,-,N/A,,Clear,170,2013-05-01 13:55:00
9:15 AM,71.6,55.4,57,30.08,10.0,South,5.8,-,N/A,,Clear,180,2013-05-01 14:15:00
9:35 AM,71.6,55.4,57,30.08,10.0,SSW,5.8,-,N/A,,Clear,200,2013-05-01 14:35:00
9:55 AM,73.4,55.4,53,30.09,10.0,South,6.9,-,N/A,,Clear,180,2013-05-01 14:55:00
10:15 AM,75.2,57.2,53,30.09,10.0,South,5.8,-,N/A,,Clear,170,2013-05-01 15:15:00
10:35 AM,75.2,55.4,50,30.09,10.0,SSW,4.6,-,N/A,,Clear,200,2013-05-01 15:35:00
10:55 AM,78.8,55.4,44,30.09,10.0,South,6.9,-,N/A,,Clear,170,2013-05-01 15:55:00
11:15 AM,78.8,53.6,42,30.09,10.0,SSW,3.5,-,N/A,,Clear,210,2013-05-01 16:15:00
11:35 AM,78.8,53.6,42,30.09,10.0,SW,6.9,16.1,N/A,,Clear,220,2013-05-01 16:35:00
11:55 AM,78.8,50.0,36,30.09,10.0,South,8.1,-,N/A,,Clear,190,2013-05-01 16:55:00
12:15 PM,78.8,51.8,39,30.08,10.0,SSE,8.1,-,N/A,,Clear,160,2013-05-01 17:15:00
12:35 PM,80.6,51.8,37,30.08,10.0,SE,8.1,17.3,N/A,,Clear,140,2013-05-01 17:35:00
12:55 PM,80.6,51.8,37,30.08,10.0,SSE,10.4,17.3,N/A,,Clear,160,2013-05-01 17:55:00
1:15 PM,80.6,48.2,32,30.08,10.0,SE,12.7,20.7,N/A,,Clear,140,2013-05-01 18:15:00
1:35 PM,80.6,50.0,34,30.08,10.0,SSE,15.0,-,N/A,,Clear,150,2013-05-01 18:35:00
1:55 PM,80.6,50.0,34,30.08,10.0,SSE,11.5,18.4,N/A,,Clear,150,2013-05-01 18:55:00
2:15 PM,80.6,53.6,39,30.08,10.0,South,13.8,19.6,N/A,,Scattered Clouds,180,2013-05-01 19:15:00
2:35 PM,82.4,51.8,35,30.08,10.0,South,11.5,15.0,N/A,,Scattered Clouds,170,2013-05-01 19:35:00
2:55 PM,80.6,51.8,37,30.08,10.0,SSE,10.4,16.1,N/A,,Scattered Clouds,150,2013-05-01 19:55:00
3:15 PM,80.6,53.6,39,30.07,10.0,South,11.5,17.3,N/A,,Scattered Clouds,170,2013-05-01 20:15:00
3:35 PM,80.6,53.6,39,30.08,10.0,South,12.7,-,N/A,,Clear,170,2013-05-01 20:35:00
3:55 PM,80.6,51.8,37,30.07,10.0,SSE,12.7,-,N/A,,Scattered Clouds,160,2013-05-01 20:55:00
4:15 PM,82.4,53.6,37,30.07,10.0,South,9.2,-,N/A,,Clear,190,2013-05-01 21:15:00
4:35 PM,82.4,53.6,37,30.07,10.0,South,8.1,-,N/A,,Scattered Clouds,170,2013-05-01 21:35:00
5:15 PM,80.6,55.4,42,30.07,10.0,South,8.1,-,N/A,,Mostly Cloudy,180,2013-05-01 22:15:00
5:35 PM,78.8,53.6,42,30.07,10.0,SSE,10.4,-,N/A,,Scattered Clouds,160,2013-05-01 22:35:00
5:55 PM,80.6,53.6,39,30.07,10.0,South,8.1,-,N/A,,Clear,170,2013-05-01 22:55:00
6:15 PM,80.6,55.4,42,30.06,10.0,SSE,9.2,-,N/A,,Clear,150,2013-05-01 23:15:00
6:35 PM,78.8,53.6,42,30.06,10.0,SE,10.4,-,N/A,,Clear,130,2013-05-01 23:35:00
6:55 PM,77.0,55.4,47,30.07,10.0,SSE,9.2,-,N/A,,Scattered Clouds,150,2013-05-01 23:55:00
7:15 PM,75.2,55.4,50,30.07,10.0,SSE,9.2,-,N/A,,Scattered Clouds,150,2013-05-02 00:15:00
7:35 PM,73.4,55.4,53,30.07,10.0,SSE,8.1,-,N/A,,Clear,150,2013-05-02 00:35:00
7:55 PM,71.6,57.2,60,30.08,10.0,SE,8.1,-,N/A,,Clear,140,2013-05-02 00:55:00
8:35 PM,69.8,57.2,64,30.09,10.0,SE,5.8,-,N/A,,Clear,130,2013-05-02 01:35:00